Flag for Canada Weather past 2 weeks in Abbotsford, British Columbia, Canada

54 °F


Feels Like: 54 °F
Forecast: 46 / 60 °F
Wind: No wind

Location: Abbotsford

Current Time: Oct 13, 2015 at 5:28:21 AM

Latest Report: Oct 13, 2015 at 5:00 AM

Visibility: 3 mi

Pressure: 30.17 "Hg

Humidity: 100%

Dew point: 54 °F

Location of AbbotsfordLocation

Historic Weather in Abbotsford — Graph


Abbotsford temperature yesterday

Maximum temperature yesterday: 54 °F (at 1:00 AM)
Minimum temperature yesterday: 50 °F (at 5:00 AM)
Average temperature yesterday: 53 °F

Past Weeks' High & Low Weather Summary

High72 °F (Sep 29, 2:00 PM)100% (Sep 28, 5:00 AM)30.20 "Hg (Sep 28, 5:00 AM)
Low41 °F (Sep 28, 5:00 AM)35% (Oct 3, 1:00 PM)29.49 "Hg (Oct 10, 3:00 PM)
Average57 °F79%30.00 "Hg
* Reported Sep 28 4:00 AM — Oct 13 4:00 AM, Abbotsford, Weather by CustomWeather, © 2015

Note: Actual official high and low records may vary slightly from our data, if they occured in-between our weather recording intervals... More about our weather records


Abbotsford weather history for previous 24 hours

Time TempWeatherWind HumidityBarometerVisibility
4:00 AM
Tue, Oct 13
54 °FFog.No wind100%30.17 "Hg1 mi
3:00 AM54 °FFog.3 mph100%30.17 "Hg2 mi
2:00 AM54 °FFog.3 mph100%30.16 "Hg2 mi
1:00 AM54 °FFog.3 mph100%30.16 "Hg2 mi
12:00 AM54 °FFog.No wind94%30.16 "Hg2 mi
11:00 PM
Mon, Oct 12
54 °FDrizzle. Fog.2 mph100%30.16 "Hg2 mi
10:52 PM54 °FDrizzle. Fog.No wind100%30.16 "Hg2 mi
10:00 PM54 °FLight rain. Fog.No wind100%30.15 "Hg2 mi
9:00 PM54 °FLight rain. Fog.2 mph100%30.15 "Hg3 mi
8:00 PM54 °FLight rain. Fog.3 mph94%30.13 "Hg2 mi
7:00 PM54 °FLight rain. Fog.5 mph100%30.12 "Hg2 mi
6:00 PM54 °FLight rain. Fog.3 mph94%30.11 "Hg2 mi
5:00 PM54 °FLight rain. Fog.5 mph100%30.11 "Hg2 mi
4:00 PM54 °FLight rain. Fog.7 mph100%30.10 "Hg1 mi
3:00 PM54 °FLight rain. Fog.6 mph94%30.09 "Hg2 mi
2:00 PM54 °FLight rain. Fog.6 mph94%30.09 "Hg2 mi
1:00 PM52 °FLight rain. Fog.6 mph94%30.09 "Hg2 mi
12:00 PM52 °FLight rain. Fog.12 mph94%30.08 "Hg6 mi
11:00 AM52 °FLight rain. Fog.10 mph94%30.08 "Hg6 mi
10:00 AM52 °FLight rain. Fog.7 mph88%30.09 "Hg6 mi
9:00 AM52 °FLight rain. Overcast.5 mph88%30.02 "Hg25 mi
8:00 AM52 °FLight rain. Passing clouds.3 mph88%30.01 "Hg30 mi
7:00 AM52 °FOvercast.2 mph82%30.01 "Hg30 mi
6:00 AM52 °FPassing clouds.3 mph82%30.03 "Hg12 mi
5:00 AM50 °FOvercast.3 mph94%30.02 "Hg12 mi
Weather by CustomWeather, © 2015

See weather overviewHow to use our weather pages